Probability
0 0 0 0 0 0 0 0 0 0 0 0 0 0 0 0 0 0 0 0 0 0 0 0 0 0 0 0 0 0 0 0 0 0 0 0 0 0 0 0 0 0 0 0
0 0 0 0 0 0 0 0 0 0 0 0 0 0 0 0 0 0 0 0 0 0 0 0 0 0 0 0 0 0 0 0 0 0 0 0 0 0 0 0 0 0 0 0
0 0 0 0 0 0 0 0 0 0 0 0 0 0 0 0 0 0 0 0 0 0 0 0 0 0 0 0 0 0 0 0 0 0 0 0 0 0 0 0 0 0 0 0
0 0 0 0 0 0 0 0 0 0 0 0 0 0 0 0 0 0 0 0 0 0 0 0 0 0 0 0 0 0 0 0 0 0 0 0 0 0 0 0 0 0 0 0
0 0 0 0 0 0 0 0 0 0 0 0 0 0 0 0 0 0 0 0 0 0 0 0 0 0 0 0 0 0 0 0 0 0 0 0 0 0 0 0 0 0 0 0
0 0 0 0 0 0 0 0 0 0 0 0 0 0 0 0 0 0 0 0 0 0 0 0 0 0 0 0 0 0 0 0 0 0 0 0 0 0 0 0 0 0 0 0
0 0 0 0 0 0 0 0 0 0 0 0 0 0 0 0 0 0 0 0 0 0 0 0 0 0 0 0 0 0 0 0 0 0 0 0 0 0 0 0 0 0 0 0
0 0 0 0 0 0 0 0 0 0 0 0 0 0 0 0 0 0 0 0 0 0 0 0 0 0 0 0 0 0 0 0 0 0 0 0 0 0 0 0 0 0 0 0
0 0 0 0 0 0 0 0 0 0 0 0 0 0 0 0 0 0 0 0 0 0 0 0 0 0 0 0 0 0 0 0 0 0 0 0 0 0 0 0 0 0 0 0
0 0 0 0 0 0 0 0 0 0 0 0 0 0 0 0 0 0 0 0 0 0 0 0 0 0 0 0 0 0 0 0 0 0 0 0 0 0 0 0 0 0 0 0
0 0 0 0 0 0 0 0 0 0 0 0 0 0 0 0 0 0 0 0 0 0 0 0 0 0 0 0 0 0 0 0 0 0 0 0 0 0 0 0 0 0 0 0
0 0 0 0 0 0 0 0 0 0 0 0 0 0 0 0 0 0 0 0 0 0 0 0 0 0 0 0 0 0 0 0 0 0 0 0 0 0 0 0 0 0 0 0
0 0 0 0 0 0 0 0 0 0 0 0 0 0 0 0 0 0 0 0 0 0 0 0 0 0 0 0 0 0 0 0 0 0 0 0 0 0 0 0 0 0 0 0
0 0 0 0 0 0 0 0 0 0 0 0 0 0 0 0 0 0 0 0 0 0 0 0 0 0 0 0 0 0 0 0 0 0 0 0 0 0 0 0 0 0 0 0
0 0 0 0 0 0 0 0 0 0 0 0 0 0 0 0 0 0 0 0 0 0 0 0 0 0 0 0 0 0 0 0 0 0 0 0 0 0 0 0 0 0 0 0
0 0 0 0 0 0 0 0 0 0 0 0 0 0 0 0 0 0 0 0 0 0 0 0 0 0 0 0 0 0 0 0 0 0 0 0 0 0 0 0 0 0 0 0
0 0 0 0 0 0 0 0 0 0 0 0 0 0 0 0 0 0 0 0 0 0 0 0 0 0 0 0 0 0 0 0 0 0 0 0 0 0 0 0 0 0 0 0
0 0 0 0 0 0 0 0 0 0 0 0 0 0 0 0 0 0 0 0 0 0 0 0 0 0 0 0 0 0 0 0 0 0 0 0 0 0 0 0 0 0 0 0
0 0 0 0 0 0 0 0 0 0 0 0 0 0 0 0 0 0 0 0 0 0 0 0 0 0 0 0 0 0 0 0 0 0 0 0 0 0 0 0 0 0 0 0
0 0 0 0 0 0 0 0 0 0 0 0 0 0 0 0 0 0 0 0 0 0 0 0 0 0 0 0 0 0 0 0 0 0 0 0 0 0 0 0 0 0 0 0
0 0 0 0 0 0 0 0 0 0 0 0 0 0 0 0 0 0 0 0 0 0 0 0 0 0 0 0 0 0 0 0 0 0 0 0 0 0 0 0 0 0 0 0
0 0 0 0 0 0 0 0 0 0 0 0 0 0 0 0 0 0 0 0 0 0 0 0 0 0 0 0 0 0 0 0 0 0 0 0 0 0 0 0 0 0 0 0
0 0 0 0 0 0 0 0 0 0 0 0 0 0 0 0 0 0 0 0 0 0 0 0 0 0 0 0 0 0 0 0 0 0 0 0 0 0 0 0 0 0 0 0
0 0 0 0 0 0 0 0 0 0 0 0 0 0 0 0 0 0 0 0 0 0 0 0 0 0 0 0 0 0 0 0 0 0 0 0 0 0 0 0 0 0 0 0
0 0 0 0 0 0 0 0 0 0 0 0 0 0 0 0 0 0 0 0 0 0 0 0 0 0 0 0 0 0 0 0 0 0 0 0 0 0 0 0 0 0 0 0
0 0 0 0 0 0 0 0 0 0 0 0 0 0 0 0 0 0 0 0 0 0 0 0 0 0 0 0 0 0 0 0 0 0 0 0 0 0 0 0 0 0 0 0
0 0 0 0 0 0 0 0 0 0 0 0 0 0 0 0 0 0 0 0 0 0 0 0 0 0 0 0 0 0 0 0 0 0 0 0 0 0 0 0 0 0 0 0
Height
5609 5610 5610 5611 5612 5613 5613 5613 5614 5616 5616 5618 5617 5616 5616 5616 5615 5615 5614 5613 5612 5611 5610 5609 5609 5608 5608 5607 5606 5606 5606 5606 5606 5607 5607 5607 5607 5608 5608 5609 5610 5611 5612 5613
5599 5600 5599 5600 5602 5603 5603 5604 5604 5605 5607 5607 5607 5607 5607 5607 5607 5606 5605 5604 5604 5603 5602 5601 5600 5600 5599 5599 5598 5598 5598 5597 5597 5597 5597 5598 5598 5598 5599 5600 5600 5601 5602 5602
5588 5589 5588 5590 5593 5593 5594 5594 5595 5595 5597 5596 5597 5597 5597 5597 5597 5597 5597 5596 5595 5594 5593 5592 5591 5591 5590 5590 5589 5589 5589 5589 5588 5588 5588 5588 5588 5589 5589 5590 5590 5591 5591 5592
5576 5578 5578 5583 5583 5583 5583 5584 5584 5584 5585 5585 5586 5586 5587 5587 5587 5587 5587 5587 5586 5585 5584 5584 5582 5582 5581 5581 5580 5580 5579 5579 5579 5579 5579 5579 5579 5579 5579 5580 5580 5581 5581 5581
5566 5566 5568 5571 5572 5573 5573 5574 5574 5574 5575 5575 5575 5576 5577 5577 5577 5577 5577 5577 5577 5576 5575 5574 5573 5573 5572 5571 5571 5570 5570 5570 5570 5569 5570 5569 5570 5570 5570 5570 5570 5570 5570 5570
5556 5556 5558 5562 5563 5562 5563 5563 5564 5564 5564 5564 5565 5566 5568 5567 5567 5567 5567 5567 5566 5566 5565 5564 5564 5563 5563 5562 5561 5561 5561 5560 5560 5560 5560 5560 5560 5560 5560 5559 5559 5559 5559 5559
5547 5547 5549 5552 5552 5553 5554 5554 5554 5553 5554 5554 5554 5555 5556 5556 5556 5556 5556 5556 5555 5555 5554 5554 5553 5553 5553 5552 5552 5551 5551 5551 5550 5550 5550 5550 5550 5549 5549 5549 5548 5548 5548 5548
5539 5539 5542 5542 5541 5542 5542 5542 5542 5542 5543 5543 5543 5543 5544 5544 5544 5545 5544 5544 5544 5544 5543 5543 5542 5542 5542 5542 5541 5541 5541 5541 5540 5540 5540 5540 5539 5539 5538 5538 5537 5537 5536 5536
5530 5532 5531 5531 5531 5531 5531 5531 5531 5532 5532 5532 5532 5532 5533 5533 5533 5533 5533 5533 5532 5532 5532 5532 5531 5531 5531 5531 5531 5531 5530 5530 5530 5530 5529 5529 5528 5527 5527 5526 5525 5525 5524 5523
5520 5521 5521 5521 5521 5521 5521 5521 5521 5521 5521 5521 5521 5521 5521 5522 5522 5522 5521 5521 5521 5521 5521 5521 5520 5520 5520 5520 5520 5520 5520 5519 5519 5519 5519 5518 5517 5516 5515 5514 5513 5512 5511 5510
5510 5511 5512 5512 5511 5511 5511 5511 5511 5511 5510 5510 5510 5510 5510 5510 5510 5510 5510 5510 5509 5509 5509 5509 5509 5509 5509 5509 5509 5509 5509 5508 5508 5508 5507 5506 5505 5504 5502 5501 5500 5499 5498 5497
5501 5502 5502 5502 5501 5501 5501 5501 5500 5500 5500 5500 5499 5499 5499 5499 5499 5499 5499 5498 5498 5498 5498 5498 5498 5498 5498 5498 5498 5498 5497 5497 5497 5496 5495 5494 5493 5492 5490 5488 5487 5485 5484 5484
5491 5491 5491 5492 5492 5491 5491 5491 5491 5491 5490 5490 5489 5489 5489 5489 5488 5488 5488 5488 5487 5487 5487 5487 5487 5487 5487 5487 5487 5487 5486 5486 5485 5485 5483 5482 5481 5480 5479 5477 5475 5474 5472 5471
5482 5482 5483 5483 5483 5483 5483 5482 5482 5482 5481 5480 5480 5480 5479 5479 5479 5478 5478 5478 5477 5477 5476 5476 5476 5476 5477 5477 5477 5476 5476 5475 5474 5473 5472 5471 5469 5468 5466 5465 5464 5463 5461 5460
5474 5474 5475 5475 5475 5475 5475 5474 5474 5473 5472 5472 5471 5470 5470 5469 5469 5469 5468 5468 5467 5467 5466 5466 5466 5466 5467 5466 5466 5466 5465 5464 5463 5462 5461 5459 5458 5456 5455 5454 5452 5451 5450 5448
5467 5467 5467 5467 5467 5467 5466 5466 5466 5465 5464 5463 5463 5462 5461 5460 5460 5459 5459 5458 5458 5457 5457 5456 5456 5456 5456 5456 5456 5455 5454 5453 5452 5451 5450 5448 5447 5445 5444 5442 5441 5440 5438 5437
5460 5460 5460 5460 5460 5459 5458 5458 5457 5457 5456 5455 5454 5453 5452 5451 5451 5450 5450 5449 5448 5448 5447 5447 5446 5446 5446 5446 5445 5445 5443 5442 5441 5440 5439 5437 5436 5434 5433 5431 5430 5428 5427 5425
5453 5453 5453 5453 5452 5452 5451 5450 5450 5449 5448 5447 5446 5445 5444 5443 5442 5441 5441 5440 5439 5438 5437 5437 5436 5436 5435 5435 5434 5434 5433 5432 5430 5429 5428 5426 5425 5423 5422 5420 5419 5417 5416 5414
5447 5446 5446 5445 5445 5444 5443 5442 5442 5441 5440 5438 5438 5436 5435 5434 5433 5432 5431 5430 5430 5429 5428 5427 5426 5426 5425 5425 5424 5423 5422 5421 5420 5419 5417 5416 5414 5412 5411 5409 5408 5406 5405 5403
5440 5439 5439 5438 5437 5436 5436 5435 5433 5432 5431 5430 5429 5428 5427 5426 5425 5423 5422 5421 5420 5419 5418 5417 5417 5416 5415 5414 5414 5413 5412 5411 5410 5408 5407 5405 5403 5401 5400 5398 5397 5395 5394 5392
5433 5432 5432 5431 5430 5429 5427 5426 5425 5424 5423 5422 5421 5420 5419 5417 5416 5414 5413 5412 5411 5410 5409 5408 5407 5406 5405 5404 5403 5402 5401 5400 5399 5397 5395 5394 5392 5390 5389 5388 5386 5385 5383 5382
5426 5425 5424 5423 5422 5421 5419 5418 5417 5416 5415 5414 5413 5411 5410 5409 5407 5405 5404 5403 5402 5400 5399 5398 5397 5395 5394 5393 5392 5391 5390 5389 5387 5386 5384 5382 5381 5379 5378 5376 5375 5374 5372 5371
5419 5418 5417 5416 5414 5413 5412 5410 5409 5408 5407 5406 5404 5403 5401 5400 5398 5397 5395 5394 5392 5391 5389 5388 5386 5385 5384 5382 5381 5380 5379 5378 5376 5375 5373 5371 5370 5368 5367 5366 5364 5363 5362 5361
5412 5411 5409 5408 5407 5406 5404 5403 5402 5400 5399 5398 5396 5395 5393 5391 5390 5388 5386 5385 5383 5382 5380 5378 5376 5375 5373 5372 5371 5369 5368 5367 5365 5364 5362 5361 5359 5358 5356 5355 5354 5353 5352 5351
5405 5404 5402 5401 5399 5398 5397 5395 5394 5393 5391 5389 5388 5386 5384 5383 5381 5380 5378 5376 5374 5373 5371 5369 5367 5365 5363 5362 5360 5359 5358 5356 5355 5353 5352 5350 5349 5348 5347 5346 5345 5344 5343 5342
5399 5397 5395 5394 5392 5391 5389 5388 5386 5385 5383 5381 5380 5378 5376 5375 5373 5371 5369 5368 5366 5364 5362 5360 5358 5356 5354 5352 5350 5349 5347 5346 5344 5343 5342 5341 5340 5339 5338 5337 5336 5335 5334 5333
5393 5391 5389 5387 5385 5383 5382 5380 5379 5377 5375 5374 5372 5370 5368 5366 5365 5363 5361 5359 5357 5355 5353 5351 5348 5346 5344 5342 5340 5339 5337 5336 5335 5334 5333 5332 5331 5330 5330 5329 5328 5327 5327 5326
Wind_Speed
38 37 37 36 35 34 36 37 38 36 35 33 33 34 33 33 31 31 31 31 31 30 30 30 30 30 30 30 31 32 31 31 32 32 32 34 35 35 35 36 37 37 38 39
40 39 38 37 36 35 36 36 37 37 36 35 35 34 34 33 32 32 32 32 32 31 31 31 31 31 31 31 32 32 32 33 33 33 33 34 34 35 35 36 37 38 39 39
39 39 40 39 37 36 36 35 35 36 35 36 36 35 34 34 34 33 32 32 32 32 32 31 32 32 32 32 33 33 34 34 33 34 34 34 35 36 36 37 37 38 38 39
38 38 39 37 36 36 36 36 36 35 35 36 36 35 35 35 35 34 34 33 33 33 33 33 32 33 33 33 34 34 34 34 34 34 34 34 34 35 36 37 37 38 38 39
37 37 37 35 35 35 35 36 36 36 36 36 36 36 35 35 35 35 35 35 35 35 35 34 33 33 34 33 33 33 34 34 34 34 34 33 34 34 35 36 37 38 38 39
35 36 36 34 34 34 36 37 37 37 37 37 37 37 36 36 36 36 36 36 36 37 36 36 35 34 35 35 34 34 34 34 34 35 34 34 34 36 36 37 38 39 39 39
32 34 34 34 34 35 36 37 37 37 37 37 37 38 37 38 38 38 37 37 37 37 37 37 37 36 35 35 35 35 35 35 35 36 36 36 36 37 38 38 39 40 40 41
32 33 33 33 34 35 36 37 37 37 38 38 38 38 38 39 39 39 39 38 38 38 37 37 37 37 37 36 36 36 36 36 36 36 37 37 37 38 39 39 40 40 41 42
33 33 33 34 34 35 37 37 36 37 37 38 39 39 40 40 40 40 40 39 39 38 38 38 37 37 37 36 36 36 36 36 37 37 37 38 38 39 40 40 41 42 42 42
32 33 34 34 35 35 36 37 37 37 37 37 38 39 39 39 40 40 40 40 39 39 38 38 37 37 36 36 36 36 36 37 37 38 38 39 40 41 42 42 42 43 44 43
33 33 34 34 35 35 35 36 36 37 37 37 37 37 37 36 37 37 38 38 38 38 38 38 37 37 36 36 36 36 37 38 38 38 39 40 40 41 41 42 43 43 42 42
32 33 33 33 34 34 34 34 35 35 35 35 35 35 35 35 35 36 36 36 36 37 37 37 36 36 36 36 36 37 37 37 38 38 39 39 39 39 40 41 40 40 40 40
31 31 32 32 31 32 32 31 31 31 32 32 33 33 33 33 33 33 34 34 34 34 35 35 35 35 35 35 36 36 36 36 35 36 37 37 37 37 37 37 37 37 38 39
29 29 29 29 29 29 30 30 30 30 30 30 30 31 31 32 32 32 32 32 32 32 33 33 33 33 34 34 35 35 34 34 34 35 36 36 36 36 35 35 36 36 37 37
27 27 27 26 27 27 28 29 30 30 29 29 29 30 30 31 31 31 31 31 31 31 31 32 32 32 32 33 34 34 34 34 35 35 35 35 35 34 34 34 35 35 36 37
26 27 27 27 27 27 27 28 29 29 29 29 29 30 29 30 30 31 31 31 31 31 31 31 31 32 32 32 33 33 34 34 35 35 35 35 34 33 33 34 35 35 36 36
25 26 27 27 27 27 28 28 28 28 28 29 29 29 29 29 30 30 31 31 32 32 32 32 32 32 33 33 33 33 33 34 34 34 34 33 33 33 34 34 35 35 35 35
25 26 26 26 27 28 28 28 28 28 28 28 28 29 29 30 30 30 31 31 32 32 32 32 32 32 32 32 32 32 33 33 33 32 32 33 33 34 34 34 34 35 35 35
25 25 25 26 26 27 27 27 27 28 28 29 29 29 29 29 30 30 31 31 31 31 31 32 32 32 31 31 31 31 31 32 32 33 33 33 34 34 34 34 34 35 35 35
24 24 25 26 26 27 27 27 27 27 28 28 28 29 29 29 30 30 30 30 31 31 31 30 30 31 30 30 31 31 32 32 33 34 34 34 34 34 34 34 34 34 34 34
23 23 24 25 26 27 27 27 27 28 28 28 28 28 28 29 29 29 30 30 30 30 30 30 31 31 32 32 33 33 34 34 34 35 35 35 35 35 34 34 34 34 33 33
23 23 24 25 25 26 27 27 27 27 27 27 27 28 28 28 29 29 29 29 29 30 30 31 31 32 32 33 33 34 34 35 35 35 35 35 35 35 35 34 34 33 32 32
23 24 24 25 25 25 25 25 26 26 26 27 27 27 27 28 28 28 28 28 28 29 29 30 30 31 31 31 32 32 33 33 33 34 34 34 34 34 34 33 33 32 32 31
23 23 24 24 24 24 24 25 25 25 26 26 26 26 27 27 27 27 27 26 27 27 27 28 28 29 30 30 31 31 32 32 32 32 33 32 32 32 31 30 30 30 30 30
22 22 23 23 23 24 24 25 25 25 26 26 26 26 26 26 26 26 26 26 26 26 27 27 28 28 29 30 30 31 31 31 31 31 30 30 29 29 28 27 27 27 27 27
21 22 22 23 23 23 24 24 25 25 25 25 26 26 25 25 26 26 26 26 26 27 27 28 28 29 29 30 30 30 30 30 30 29 28 27 27 26 25 25 25 25 25 25
21 21 22 22 23 23 24 24 24 24 25 25 25 26 26 26 25 25 26 26 26 27 28 28 29 29 30 29 29 29 29 28 28 28 27 26 25 25 24 24 24 24 23 23
Wind_Direction
268 267 267 266 266 266 266 267 268 270 271 272 273 273 273 274 274 275 276 276 275 277 276 274 274 275 275 275 272 270 268 267 268 267 265 263 261 261 260 260 259 260 259 260
266 265 265 265 266 267 266 266 267 268 269 270 271 271 272 272 273 274 275 276 276 275 275 274 275 275 274 275 272 271 270 269 269 269 267 265 263 262 261 261 260 261 261 261
265 264 265 265 265 267 267 266 267 267 268 268 268 267 269 270 271 272 273 274 275 275 275 275 274 275 275 274 272 270 269 269 269 269 268 267 265 264 263 262 261 261 262 262
267 265 265 266 266 267 268 267 267 267 267 268 268 267 268 269 270 272 273 273 274 274 275 276 275 274 276 275 273 271 270 268 268 268 268 267 267 266 266 264 264 263 263 262
267 266 265 264 265 267 268 267 268 269 269 270 269 268 267 269 270 271 272 274 274 274 275 275 275 275 275 275 274 272 270 269 268 268 269 269 267 267 267 267 267 267 267 267
268 267 267 266 265 267 268 267 268 270 271 272 271 269 267 268 269 270 271 272 273 274 275 275 275 275 274 274 273 272 271 270 269 270 270 270 269 269 270 269 269 269 269 270
267 267 268 269 269 268 269 270 270 271 272 272 271 270 268 268 269 270 270 271 273 273 274 275 275 275 274 273 273 271 271 270 271 271 271 271 270 271 272 272 271 271 271 272
267 267 268 270 270 270 272 272 272 272 272 272 271 271 270 270 271 271 272 272 272 273 274 274 274 275 275 274 273 272 271 271 272 272 272 273 272 273 273 273 273 273 273 273
266 268 269 269 272 273 272 272 273 273 273 273 272 272 272 272 272 273 273 273 273 273 274 274 274 275 274 274 273 272 271 272 272 273 273 273 274 274 275 274 273 273 273 273
266 267 269 269 271 272 273 272 272 272 273 274 273 272 272 272 272 272 273 273 273 273 273 273 274 274 274 274 274 274 274 273 273 273 274 275 275 276 276 276 275 275 274 273
268 269 269 269 271 271 272 272 271 272 273 273 273 273 272 272 272 273 273 274 273 273 272 273 273 273 274 274 274 274 274 275 275 275 276 277 278 278 278 277 277 276 275 274
268 269 269 269 270 271 271 272 272 273 274 274 274 274 274 273 274 274 274 275 274 274 274 273 273 273 274 274 275 275 275 275 276 276 277 278 279 279 279 278 277 276 275 275
268 268 269 269 269 270 272 273 273 274 275 275 275 274 274 274 273 274 275 275 274 274 274 273 272 272 273 275 275 277 277 277 277 278 280 280 280 280 279 278 278 277 276 275
268 269 269 268 268 270 271 273 274 275 275 276 275 275 274 273 273 274 275 275 275 275 274 273 273 272 273 274 275 277 277 277 278 279 280 281 282 281 280 279 278 277 277 277
269 270 270 269 270 270 272 273 274 274 275 276 276 277 275 273 272 272 273 275 275 276 276 275 273 271 272 273 274 276 277 278 279 280 281 282 282 282 281 281 280 279 279 278
268 270 271 272 272 272 273 274 275 275 275 275 276 276 275 273 273 273 274 274 274 275 275 274 272 272 273 274 276 278 279 280 281 282 283 283 283 282 281 281 280 280 280 280
269 270 272 273 274 275 276 278 278 278 277 276 276 276 276 275 274 275 276 277 277 276 276 274 273 274 276 276 277 279 280 281 282 283 283 283 282 282 282 281 281 281 281 281
271 272 273 273 274 275 276 277 278 279 279 277 277 278 279 277 276 276 277 278 278 278 277 277 277 277 278 278 279 280 280 281 282 284 284 284 284 283 283 282 282 282 282 283
272 274 275 276 276 277 278 278 279 279 279 279 279 279 280 280 279 278 278 278 278 278 278 278 278 277 278 278 279 280 282 282 283 284 285 285 285 284 283 282 283 283 283 283
274 275 276 277 278 278 279 281 281 281 281 281 280 280 280 281 281 281 280 280 280 280 280 279 279 279 279 280 280 281 282 283 283 284 285 285 284 284 283 282 283 283 283 283
277 278 278 279 279 280 280 281 282 282 282 282 282 282 282 283 282 282 282 281 281 280 280 281 280 280 280 280 281 282 283 283 283 284 285 284 283 282 282 282 282 282 282 282
279 280 281 281 280 280 281 281 281 282 283 283 283 283 283 284 284 284 283 282 282 281 282 282 282 281 281 281 282 283 283 283 283 283 283 283 282 281 281 281 281 281 281 281
282 281 281 281 281 281 282 282 282 283 284 284 284 284 284 286 286 285 284 284 284 284 284 284 284 283 283 283 283 283 283 283 283 283 282 282 282 281 281 281 280 280 281 282
284 284 284 283 283 283 283 283 284 284 286 286 285 285 286 287 287 287 286 285 286 286 286 286 286 285 285 284 284 284 284 284 284 284 283 283 282 281 280 280 280 280 280 281
286 286 286 286 286 286 285 285 285 286 287 287 287 288 288 287 287 287 286 286 287 288 288 288 288 288 288 287 285 284 284 285 285 285 284 283 282 281 279 279 279 280 281 282
288 289 289 289 289 288 287 286 286 286 287 287 288 289 290 290 290 288 287 288 288 289 290 291 291 291 290 289 288 286 285 285 285 284 283 283 281 279 279 279 280 281 282 282
290 291 291 290 289 289 289 289 289 289 289 289 289 290 291 291 292 291 290 290 290 291 291 292 292 292 292 291 289 287 285 284 284 283 282 280 279 278 279 279 281 282 283 283